Regional Weather Roundup
Issued by NWS

Home | Current Version | Previous Version | Text Only | Print | Product List | Glossary On
Versions: 1 2 3 4 5 6 7 8 9 10 11 12 13 14 15 16 17 18 19 20 21 22 23 24 25 26 27 28 29 30 31 32 33 34 35 36 37 38 39 40 41 42 43 44 45 46 47 48 49 50
000
ASUS43 KFSD 260910
RWRSD

WEATHER ROUNDUP FOR SOUTH DAKOTA
NATIONAL WEATHER SERVICE SIOUX FALLS SD
300 AM CST MON JAN 26 2015

NOTE: "FAIR" INDICATES FEW OR NO CLOUDS BELOW 12,000 FEET WITH NO
SIGNIFICANT WEATHER AND/OR OBSTRUCTIONS TO VISIBILITY.


SDZ001>005-009-010-012>017-261000-
NORTHWEST AND NORTH CENTRAL SOUTH DAKOTA

CITY           SKY/WX    TMP DP  RH WIND       PRES   REMARKS
BUFFALO          N/A     40  32  73 W15       29.88R
FAITH            N/A     44  32  62 W24       29.89R
MOBRIDGE       CLEAR     39  33  79 N10       29.80R
$$

SDZ012>016-024>037-041>051-057-063-072>074-261000-
SOUTHWEST AND SOUTH CENTRAL SOUTH DAKOTA

CITY           SKY/WX    TMP DP  RH WIND       PRES   REMARKS
RAPID CTY ARPT CLEAR     52  29  41 NW16      29.96S
PIERRE         PTCLDY    34  28  79 W7        29.85S WCI  28
CUSTER         PTCLDY    40  27  59 W8        30.05S
ELLSWORTH AFB  PTCLDY    53  30  42 NW21      29.96S
PHILIP         CLEAR     37  30  75 W12       29.91S
PINE RIDGE     CLEAR     36  29  75 SW3       30.04R
SPEARFISH      FAIR      52  28  40 W17G24    30.03S
WINNER         FAIR      46  34  62 W13       29.89S
$$

SDZ004>011-016>023-039-040-261000-
NORTHEAST SOUTH DAKOTA

CITY           SKY/WX    TMP DP  RH WIND       PRES   REMARKS
ABERDEEN       PTCLDY    32  29  88 SW7       29.76S WCI  26
WATERTOWN      PTCLDY    33  30  88 SW15      29.75F WCI  23
SISSETON         N/A     39  31  72 W12       29.72S
$$

SDZ017-020-022-023-036>040-048>070-261000-
SOUTHEAST SOUTH DAKOTA

CITY           SKY/WX    TMP DP  RH WIND       PRES   REMARKS
SIOUX FALLS    PTCLDY    33  30  88 SW7       29.86F WCI  27
HURON          CLEAR     31  29  92 SW7       29.80F WCI  24
CHAMBERLAIN    PTCLDY    37  31  79 W13       29.86S
MITCHELL       CLEAR     33  30  88 SW10      29.83F WCI  25
YANKTON        CLEAR     34  28  80 SW7       29.89F WCI  28
$$

ABBREVIATIONS USED IN REMARKS
   TC - TEMPERATURE IN CELSIUS
  WCI - WIND CHILL INDEX
   HX - HEAT INDEX
  VSB - VISIBILITY



USA.gov is the U.S. government's official web portal to all federal, state and local government web resources and services.